Location: Haliburton Scout Reserve
(45.0900°N, 78.3200°W)
Time: 08:03:54
(UTC-04:00)

S-56A Canister/Altair - Pass Details

Date: 06 February 2023
Orbit: 639 x 2493 km, 38.9° (Epoch: 27 March)

Event Time Altitude Azimuth Distance (km) Brightness Sun altitude
Rises 13:04:21 0° 263° (W) 3,002 10.8 28.8°
Reaches altitude 10° 13:06:32 10° 256° (WSW) 2,173 10.3 28.7°
Maximum altitude 13:11:12 43° 185° (S) 1,157 10.4 28.6°
Drops below altitude 10° 13:17:27 10° 116° (ESE) 2,925 10.7 28.3°
Sets 13:20:52 0° 111° (ESE) 4,181 11.4 28.2°
